Miscellaneous Local Product
Issued by NWS Hastings, NE

Home | Current Version | Previous Version | Text Only | Print | Product List | Glossary Off
Versions: 1 2 3 4 5 6 7 8 9 10 11 12 13 14 15 16 17 18 19 20 21 22 23 24 25 26 27 28 29 30 31 32 33 34 35 36 37 38 39 40 41 42 43 44 45 46 47 48 49 50

000
AXUS43 KGID 030302
MISGRI

GID CWA HOURLY WEATHER ROUNDUP
NATIONAL WEATHER SERVICE HASTINGS NE
900 PM CST MON MAR 02 2015

NOTE: "FAIR" INDICATES FEW OR NO CLOUDS BELOW 12,000 FEET WITH NO
SIGNIFICANT WEATHER AND/OR OBSTRUCTIONS TO VISIBILITY.

...SOUTH CENTRAL NEBRASKA...

CITY           SKY/WX    TMP DP  RH WIND       PRES   REMARKS
GRAND ISLAND   CLOUDY    30  16  56 S14       29.92F WCI  19
HASTINGS       CLOUDY    30  17  58 S10       29.91F WCI  21
KEARNEY        CLOUDY    28  16  59 S17       29.87F WCI  16
ORD            CLOUDY    31  14  49 S14G23    29.85F WCI  21
YORK           CLOUDY    32  18  55 S12       29.95F WCI  23
AURORA         CLOUDY    31  17  54 S14G20    29.93F WCI  21
LEXINGTON      CLOUDY    32  20  63 S17G25    29.81F WCI  20
HOLDREGE       CLOUDY    30  17  58 SE16G23   29.84F WCI  18
HEBRON         CLOUDY    31  19  60 S13G18    29.95F WCI  22

...NEBRASKA PANHANDLE...

CITY           SKY/WX    TMP DP  RH WIND       PRES   REMARKS
CHADRON        MOCLDY    33  24  69 S14       29.64F WCI  23
ALLIANCE       CLOUDY    29  24  82 SE12      29.64F WCI  19
SCOTTSBLUFF    PTCLDY    29  23  78 E13       29.60F WCI  19
SIDNEY         CLOUDY    29  25  85 SE12      29.60F WCI  19

...WESTERN AND NORTH CENTRAL NEBRASKA...

CITY           SKY/WX    TMP DP  RH WIND       PRES   REMARKS
VALENTINE      CLOUDY    32  21  64 S10       29.73F WCI  24
AINSWORTH      CLOUDY    31  19  61 S14       29.75F WCI  21
ONEILL         CLOUDY    33  16  49 S16G24    29.83F WCI  22
BROKEN BOW     CLOUDY    31  20  63 S18G31    29.80F WCI  19
IMPERIAL         N/A     30  27  88 S16G26    29.69F FOG     WCI  19
NORTH PLATTE   CLOUDY    30  22  72 S15       29.76F WCI  19
MCCOOK         CLOUDY    32  23  69 SE14      29.77F WCI  22

...EASTERN NEBRASKA...

CITY           SKY/WX    TMP DP  RH WIND       PRES   REMARKS
NORFOLK        CLOUDY    33  19  56 S14       29.91F WCI  23
SO SIOUX CITY  CLOUDY    34  21  59 SE13      29.99F WCI  25
TEKAMAH        CLOUDY    33  22  63 SE16      30.00F WCI  23
COLUMBUS       CLOUDY    34  16  47 S15       29.96F WCI  24
ALBION         CLOUDY    32  16  51 S15       29.89F WCI  22
OMAHA EPPLEY   CLOUDY    33  19  56 SE18G25   30.03F WCI  22
OFFUTT AFB     CLOUDY    33  18  55 SE14      30.02F WCI  23
MILLARD        CLOUDY    34  18  52 SE15G23   30.01F WCI  24
LINCOLN        CLOUDY    34  17  50 S18       30.00F WCI  23
NEBRASKA CITY  CLOUDY    32  15  49 S14       30.02F WCI  22
BEATRICE       CLOUDY    32  20  60 S15       29.99F WCI  22
FALLS CITY     CLOUDY    34  19  54 SE15      30.05F WCI  24

...NORTHERN KANSAS...

CITY           SKY/WX    TMP DP  RH WIND       PRES   REMARKS
GOODLAND       CLOUDY    31  30  96 S26G37    29.65F WCI  17
HILL CITY      CLOUDY    30  22  72 S14       29.83F WCI  19
PHILLIPSBURG   CLOUDY    34  23  64 SE10      29.88F WCI  26
SMITH CENTER   CLEAR     28  19  69 SE14      29.90F WCI  17
BELOIT         CLEAR     32  21  64 SE9       29.94F WCI  24
HAYS           CLOUDY    28  18  64 S14G21    29.88F WCI  17
RUSSELL        CLOUDY    30  23  75 S18       29.89F WCI  18
CONCORDIA      CLOUDY    31  23  72 SE12      29.95F WCI  22
SALINA         CLOUDY    33  26  75 S14       30.00F WCI  23
TOPEKA         CLOUDY    34  22  61 SE16G23   30.06F WCI  24



USA.gov is the U.S. government's official web portal to all federal, state and local government web resources and services.